Regional Weather Roundup
Issued by NWS

Home | Current Version | Previous Version | Text Only | Print | Product List | Glossary Off
Versions: 1 2 3 4 5 6 7 8 9 10 11 12 13 14 15 16 17 18 19 20 21 22 23 24 25 26 27 28 29 30 31 32 33 34 35 36 37 38 39 40 41 42 43 44 45 46 47 48 49 50

000
ASUS45 KBOU 280407
RWRCO

WEATHER ROUNDUP FOR COLORADO
NATIONAL WEATHER SERVICE DENVER/BOULDER CO
1000 PM MDT FRI MAR 27 2015

NOTE: "FAIR" INDICATES FEW OR NO CLOUDS BELOW 12000 FEET WITH NO
SIGNIFICANT WEATHER AND/OR OBSTRUCTIONS TO VISIBILITY.

COZ001>005-013-030-031-280500-
...NORTHWEST COLORADO...

CITY           SKY/WX    TMP DP  RH WIND       PRES   REMARKS
CRAIG          PTCLDY    47  31  53 CALM      30.21R
HAYDEN         PTCLDY    52  27  37 S3        30.22S
MEEKER         CLEAR     43  31  62 CALM      30.24R
MOUNT WERNER   NOT AVBL
STEAMBOAT SPGS MOCLDY    45  32  59 CALM      30.24R
WALDEN         CLOUDY    43  27  52 SE7       30.27F
$$

COZ006>008-011-280500-
...WEST CENTRAL VALLEYS...

CITY           SKY/WX    TMP DP  RH WIND       PRES   REMARKS
GRAND JUNCTION CLEAR     54  25  32 SW5       30.17R
MONTROSE       CLEAR     51  25  36 SE13      30.25R
EAGLE          PTCLDY    46  28  49 CALM      30.27R
RIFLE          CLEAR     50  26  39 E3        30.20R
DELTA          CLEAR     59  23  25 CALM      30.20R
NUCLA          CLEAR     50  23  34 E12       30.27R
$$

COZ017>023-064>068-280500-
...SOUTHWEST COLORADO...

CITY           SKY/WX    TMP DP  RH WIND       PRES   REMARKS
DURANGO        CLEAR     55  23  28 N7        30.26R
CORTEZ         CLEAR     44  23  43 NE8       30.25R
PAGOSA SPRINGS CLEAR     47  19  31 CALM      30.29R
TELLURIDE      PTCLDY    44  24  46 SE5       30.41R
WOLF CREEK PAS PTCLDY    34  12  40 N9        30.52S WCI  26
$$

COZ009-010-012-014-032>034-037-058>063-280500-
...CENTRAL COLORADO...

CITY           SKY/WX    TMP DP  RH WIND       PRES   REMARKS
ASPEN          CLEAR     41  26  55 S8        30.30R
BUENA VISTA    CLEAR     43  27  52 NW9       30.30S
COPPER MTN     CLEAR     34  19  55 W14       30.46F WCI  24
BERTHOUD PASS  FAIR      28  21  74 NW29G43   30.44S WCI  13
COTTONWOOD PAS CLEAR     45  18  33 NW9       30.39R
GUNNISON       CLEAR     45  23  42 NE3       30.34R
KREMMLING      CLOUDY    41  28  60 E6        30.28R
LEADVILLE      PTCLDY    32  18  56 E7        30.38R WCI  26
SALIDA         CLEAR     48  19  31 SW5       30.35S
SUNLIGHT       CLEAR     41  23  48 CALM      30.47S
WILKERSON PASS PTCLDY    34  18  51 N9G16     30.46S WCI  26
$$

COZ069>075-280500-
...SAN LUIS VALLEY/SANGRE DE CRISTO MOUNTAINS...

CITY           SKY/WX    TMP DP  RH WIND       PRES   REMARKS
ALAMOSA        CLEAR     51  15  23 NW9       30.27R
LA VETA PASS   PTCLDY    41  19  42 W7        30.38S
SAGUACHE       CLEAR     45  19  36 N8        30.31R
$$

COZ035-036-038>040-280500-
...NORTHERN COLORADO FRONT RANGE...

CITY           SKY/WX    TMP DP  RH WIND       PRES   REMARKS
DENVER INTL AP PTCLDY    56  33  42 W7        30.14R
DMNS CITY PARK   N/A     58  27  30 SE1       30.14S
AURORA         PTCLDY    55  29  36 SW2       30.16S
FRONT RANGE AP NOT AVBL
ERIE MUNI ARPT MOCLDY    56  29  35 W6        30.13S
BOULDER MUN AP PTCLDY    59  30  33 S3        30.14S
CENTENNIAL     PTCLDY    52  28  39 W6        30.17R
BROOMFIELD     PTCLDY    59  28  31 W13       30.16R
FORT COLLINS   PTCLDY    55  30  38 NW5       30.13R
LONGMONT       CLOUDY    65  28  25 W9G17     30.13S
$$

COZ041-046-047-076>085-087-088-280500-
...PIKES PEAK/PALMER DIVIDE AND SOUTHERN FOOTHILLS...

CITY           SKY/WX    TMP DP  RH WIND       PRES   REMARKS
COLO. SPRINGS  CLEAR     54  28  36 W7        30.20R
A. F. ACADEMY  CLEAR     47  25  42 N9        30.20R
ELLICOTT       CLEAR    N/A N/A N/A CALM      30.19R
FALCON         CLEAR     51  23  34 NW10      30.23R
FORT CARSON    CLEAR     49  31  48 E3        30.17R
LIMON          PTCLDY    51  34  52 W12       30.14R
MONUMENT HILL  PTCLDY    39  28  65 W7        30.22S
TRINIDAD       MOCLDY    51  32  48 NW6       30.18R
$$

COZ042>045-048>051-090-091-280500-
...NORTHEAST COLORADO...

CITY           SKY/WX    TMP DP  RH WIND       PRES   REMARKS
GREELEY ARPT   PTCLDY    52  25  35 W8        30.09S
AKRON          CLEAR     48  32  53 SW10      30.07R
BURLINGTON     PTCLDY    48  34  58 W10       30.06R
WRAY           PTCLDY    49  32  52 W3        30.01S
STERLING       CLEAR     50  32  50 NW7       30.03S
HOLYOKE        PTCLDY    48  32  53 W9        30.02R
FORT MORGAN    CLEAR     51 -35   2 W7        30.09S
$$

COZ086-089-092>099-280500-
...SOUTHEAST COLORADO...

CITY           SKY/WX    TMP DP  RH WIND       PRES   REMARKS
PUEBLO         CLEAR     49  34  56 NE3       30.13R
LA JUNTA       PTCLDY    56  32  40 SW10      30.09R
LAMAR          CLEAR     50  34  54 SW7       30.04R
SPRINGFIELD      N/A     52  33  48 S7        30.10F
$$



USA.gov is the U.S. government's official web portal to all federal, state and local government web resources and services.